Previsão horária em Ceglowo

Hoje, 31 Julho, Sábado

Tempo Temperatura Precipitação Vento Pressão Humidade
00:00 +16°C° 0 mm 2 m/s 743 mmHg 69%
01:00 +15°C° 0 mm 2 m/s 744 mmHg 69%
02:00 +15°C° 0 mm 2 m/s 743 mmHg 69%
03:00 +15°C° 0 mm 2 m/s 743 mmHg 70%
04:00 +15°C° 0 mm 2 m/s 743 mmHg 71%
05:00 +16°C° 0 mm 2 m/s 743 mmHg 68%
06:00 +18°C° 0 mm 2 m/s 743 mmHg 64%
07:00 +20°C° 0 mm 3 m/s 743 mmHg 61%
08:00 +22°C° 0 mm 3 m/s 743 mmHg 57%
09:00 +25°C° 0 mm 3 m/s 743 mmHg 52%
10:00 +27°C° 0 mm 4 m/s 743 mmHg 48%
11:00 +27°C° 0 mm 4 m/s 743 mmHg 47%
12:00 +28°C° 0 mm 5 m/s 743 mmHg 47%
13:00 +29°C° 0 mm 5 m/s 742 mmHg 46%
14:00 +27°C° 0.1 mm 5 m/s 742 mmHg 53%
15:00 +26°C° 0.1 mm 4 m/s 742 mmHg 59%
16:00 +23°C° 0.1 mm 4 m/s 742 mmHg 65%
17:00 +23°C° 0 mm 4 m/s 742 mmHg 63%
18:00 +22°C° 0 mm 4 m/s 742 mmHg 61%
19:00 +22°C° 0 mm 4 m/s 742 mmHg 59%
20:00 +20°C° 0 mm 3 m/s 743 mmHg 65%
21:00 +19°C° 0 mm 3 m/s 743 mmHg 71%
22:00 +17°C° 0 mm 2 m/s 744 mmHg 78%
23:00 +16°C° 0 mm 2 m/s 744 mmHg 76%

Amanhã, 1 Agosto, Domingo

Tempo Temperatura Precipitação Vento Pressão Humidade
00:00 +16°C° 0 mm 3 m/s 744 mmHg 75%
01:00 +16°C° 0 mm 3 m/s 744 mmHg 73%
02:00 +16°C° 0 mm 3 m/s 744 mmHg 73%
03:00 +15°C° 0 mm 4 m/s 744 mmHg 72%
04:00 +15°C° 0 mm 4 m/s 744 mmHg 72%
05:00 +17°C° 0 mm 4 m/s 744 mmHg 71%
06:00 +17°C° 0 mm 4 m/s 744 mmHg 71%
07:00 +18°C° 0 mm 4 m/s 745 mmHg 70%
08:00 +19°C° 0 mm 4 m/s 745 mmHg 65%
09:00 +21°C° 0 mm 4 m/s 745 mmHg 60%
10:00 +22°C° 0 mm 4 m/s 745 mmHg 55%
11:00 +22°C° 0 mm 4 m/s 745 mmHg 57%
12:00 +22°C° 0 mm 4 m/s 745 mmHg 59%
13:00 +22°C° 0 mm 4 m/s 745 mmHg 60%
14:00 +20°C° 0.4 mm 4 m/s 745 mmHg 69%
15:00 +19°C° 0.4 mm 4 m/s 745 mmHg 77%
16:00 +17°C° 0.4 mm 4 m/s 745 mmHg 86%
17:00 +17°C° 0 mm 3 m/s 744 mmHg 85%
18:00 +17°C° 0 mm 3 m/s 744 mmHg 85%
19:00 +17°C° 0 mm 2 m/s 744 mmHg 85%
20:00 +16°C° 0 mm 2 m/s 744 mmHg 89%
21:00 +15°C° 0 mm 2 m/s 744 mmHg 92%
22:00 +14°C° 0 mm 2 m/s 744 mmHg 96%
23:00 +14°C° 0 mm 2 m/s 744 mmHg 96%

Depois de amanhã, 2 Agosto, Segunda-feira

Tempo Temperatura Precipitação Vento Pressão Humidade
00:00 +14°C° 0 mm 2 m/s 744 mmHg 96%
01:00 +14°C° 0 mm 2 m/s 744 mmHg 96%
02:00 +14°C° 0 mm 2 m/s 744 mmHg 96%
03:00 +14°C° 0 mm 2 m/s 744 mmHg 96%
04:00 +14°C° 0 mm 2 m/s 744 mmHg 96%
05:00 +15°C° 0 mm 2 m/s 744 mmHg 91%
06:00 +16°C° 0 mm 2 m/s 744 mmHg 86%
07:00 +17°C° 0 mm 3 m/s 744 mmHg 81%
08:00 +19°C° 0 mm 3 m/s 744 mmHg 73%
09:00 +20°C° 0 mm 3 m/s 744 mmHg 66%
10:00 +21°C° 0 mm 3 m/s 744 mmHg 59%
11:00 +21°C° 0.4 mm 3 m/s 744 mmHg 61%
12:00 +21°C° 0.4 mm 4 m/s 744 mmHg 63%
13:00 +21°C° 0.4 mm 4 m/s 744 mmHg 66%
14:00 +21°C° 0.7 mm 4 m/s 744 mmHg 68%
15:00 +21°C° 0.7 mm 3 m/s 745 mmHg 70%
16:00 +20°C° 0.7 mm 3 m/s 745 mmHg 71%
17:00 +19°C° 0.3 mm 3 m/s 745 mmHg 75%
18:00 +18°C° 0.3 mm 2 m/s 745 mmHg 78%
19:00 +18°C° 0.3 mm 1 m/s 745 mmHg 81%
20:00 +16°C° 0 mm 2 m/s 745 mmHg 81%
21:00 +16°C° 0 mm 2 m/s 746 mmHg 81%
22:00 +15°C° 0 mm 2 m/s 746 mmHg 81%
23:00 +13°C° 0 mm 3 m/s 746 mmHg 83%

3 Agosto, Terça-feira

Tempo Temperatura Precipitação Vento Pressão Humidade
00:00 +12°C° 0 mm 3 m/s 746 mmHg 84%
01:00 +11°C° 0 mm 3 m/s 747 mmHg 85%
02:00 +11°C° 0 mm 3 m/s 747 mmHg 85%
03:00 +11°C° 0 mm 3 m/s 747 mmHg 84%
04:00 +11°C° 0 mm 3 m/s 747 mmHg 84%
05:00 +12°C° 0 mm 3 m/s 747 mmHg 82%
06:00 +14°C° 0 mm 4 m/s 748 mmHg 79%
07:00 +15°C° 0 mm 4 m/s 748 mmHg 76%
08:00 +17°C° 0.1 mm 4 m/s 748 mmHg 72%
09:00 +19°C° 0.1 mm 3 m/s 748 mmHg 68%
10:00 +20°C° 0.1 mm 3 m/s 749 mmHg 63%
11:00 +20°C° 0.4 mm 3 m/s 749 mmHg 63%
12:00 +21°C° 0.4 mm 3 m/s 749 mmHg 62%
13:00 +21°C° 0.4 mm 3 m/s 749 mmHg 61%
14:00 +21°C° 0.2 mm 2 m/s 749 mmHg 61%
15:00 +21°C° 0.2 mm 2 m/s 749 mmHg 60%
16:00 +22°C° 0.2 mm 1 m/s 749 mmHg 60%
17:00 +21°C° 0 mm 1 m/s 749 mmHg 63%
18:00 +20°C° 0 mm 1 m/s 749 mmHg 67%
19:00 +18°C° 0 mm 2 m/s 749 mmHg 70%
20:00 +17°C° 0 mm 2 m/s 749 mmHg 72%
21:00 +16°C° 0 mm 2 m/s 749 mmHg 73%
22:00 +16°C° 0 mm 2 m/s 749 mmHg 74%
23:00 +15°C° 0 mm 2 m/s 749 mmHg 73%

4 Agosto, Quarta-feira

Tempo Temperatura Precipitação Vento Pressão Humidade
00:00 +15°C° 0 mm 2 m/s 749 mmHg 72%
01:00 +15°C° 0 mm 2 m/s 749 mmHg 70%
02:00 +15°C° 0 mm 2 m/s 749 mmHg 72%
03:00 +14°C° 0 mm 2 m/s 749 mmHg 73%
04:00 +14°C° 0 mm 2 m/s 749 mmHg 74%
05:00 +14°C° 0 mm 3 m/s 749 mmHg 70%
06:00 +17°C° 0 mm 3 m/s 749 mmHg 66%
07:00 +19°C° 0 mm 3 m/s 749 mmHg 63%
08:00 +20°C° 0 mm 3 m/s 749 mmHg 57%
09:00 +22°C° 0 mm 3 m/s 749 mmHg 51%
10:00 +25°C° 0 mm 3 m/s 748 mmHg 45%
11:00 +25°C° 0 mm 3 m/s 748 mmHg 44%
12:00 +26°C° 0 mm 3 m/s 748 mmHg 42%
13:00 +26°C° 0 mm 3 m/s 748 mmHg 40%
14:00 +26°C° 0 mm 3 m/s 747 mmHg 43%
15:00 +26°C° 0 mm 3 m/s 747 mmHg 46%
16:00 +25°C° 0 mm 3 m/s 747 mmHg 49%
17:00 +24°C° 0 mm 3 m/s 747 mmHg 55%
18:00 +21°C° 0 mm 3 m/s 747 mmHg 60%
19:00 +20°C° 0 mm 2 m/s 746 mmHg 66%
20:00 +19°C° 0 mm 2 m/s 746 mmHg 69%
21:00 +19°C° 0 mm 2 m/s 746 mmHg 72%
22:00 +18°C° 0 mm 2 m/s 746 mmHg 75%
23:00 +18°C° 0.3 mm 2 m/s 746 mmHg 78%

5 Agosto, Quinta-feira

Tempo Temperatura Precipitação Vento Pressão Humidade
00:00 +18°C° 0.3 mm 1 m/s 746 mmHg 82%
01:00 +18°C° 0.3 mm 1 m/s 746 mmHg 85%
02:00 +16°C° 0.5 mm 1 m/s 746 mmHg 88%
03:00 +16°C° 0.5 mm 1 m/s 745 mmHg 90%
04:00 +16°C° 0.5 mm 1 m/s 745 mmHg 93%
05:00 +16°C° 0.8 mm 1 m/s 745 mmHg 93%
06:00 +16°C° 0.8 mm 2 m/s 745 mmHg 94%
07:00 +16°C° 0.8 mm 2 m/s 745 mmHg 95%
08:00 +16°C° 1.2 mm 2 m/s 745 mmHg 95%
09:00 +16°C° 1.2 mm 3 m/s 744 mmHg 95%
10:00 +16°C° 1.2 mm 3 m/s 744 mmHg 95%
11:00 +15°C° 1.6 mm 4 m/s 744 mmHg 95%
12:00 +15°C° 1.6 mm 4 m/s 744 mmHg 95%
13:00 +15°C° 1.6 mm 4 m/s 744 mmHg 95%
14:00 +15°C° 0.7 mm 4 m/s 744 mmHg 95%
15:00 +15°C° 0.7 mm 4 m/s 743 mmHg 95%
16:00 +15°C° 0.7 mm 4 m/s 743 mmHg 95%
17:00 +16°C° 0.3 mm 3 m/s 743 mmHg 96%
18:00 +16°C° 0.3 mm 3 m/s 743 mmHg 97%
19:00 +16°C° 0.3 mm 2 m/s 743 mmHg 98%
20:00 +16°C° 0.2 mm 2 m/s 743 mmHg 98%
21:00 +16°C° 0.2 mm 2 m/s 743 mmHg 98%
22:00 +16°C° 0.2 mm 2 m/s 743 mmHg 98%
23:00 +16°C° 0.1 mm 1 m/s 742 mmHg 98%
Mostrar mais

Necessitamos do seu Consentimento

A Meteoprog e os seus Fornecedores de Serviços podem armazenar e aceder a dados pessoais como cookies, identificadores do dispositivo ou outras tecnologias semelhantes existentes no seu dispositivo e processar estes dados para personalizar conteúdos e anúncios, assim como funcionalidades nas redes sociais e análise de tráfego.

  • Armazenar e/ou aceder a informações no seu dispositivo

    Os cookies, identificadores do dispositivo ou outras informações podem ser armazenados ou acedidos no seu dispositivo, para os fins acima indicados.

  • Anúncios e conteúdos personalizados, medição de anúncios e conteúdos, dados sobre o público-alvo e desenvolvimento de produtos

    Os anúncios e os conteúdos podem ser personalizados com base num perfil. Podem ser adicionados dados adicionais para uma maior personalização dos anúncios e dos conteúdos. A eficácia dos anúncios e dos conteúdos pode ser medida. Podem ser obtidas informações sobre o público que visualizou os anúncios e os conteúdos. Estes dados podem ser usados para desenvolver ou melhorar sistemas, softwares ou a experiência do utilizador.

Ao clicar em "Eu concordo”, permitirá o uso de cookies, identificadores do dispositivo e web beacons mencionados ou outras tecnologias semelhantes. As configurações do navegador do seu dispositivo podem ser alteradas.

Para certos fins, podem ser invocados interesses legítimos ao invés de consentimento. Pode ler mais informação sobre este assunto na nossa Política de Privacidade e Cookies.